Hourly Data Report for October 13, 2019

All times are specified in Local Standard Time (LST). Add 1 hour to adjust for Daylight Saving Time where and when it is observed.

SEPT-ILES
QUEBEC
Current Station Operator: ECCC - MSC

50°13'00.000" N
66°15'00.000" W
52.60 m
7047914
71279
XZV

Download Data

Hourly Data (October 2019)
Hourly Data Report for October 13, 2019
TIME Temp Definition
°C
Dew Point Definition
°C
Rel Hum Definition
%
Wind Dir Definition
10's deg

Wind Spd Definition
km/h
Visibility Definition
km
Stn Press Definition
kPa
Hmdx Definition


Wind Chill Definition


Weather Definition


00:00 7.9 2.2 67 7 2   100.83     LegendNANA
01:00 7.7 4.0 77 3 4   100.79     LegendNANA
02:00 7.4 4.4 81 4 2   100.76     LegendNANA
03:00 5.7 3.2 84   0   100.74     LegendNANA
04:00 2.9 0.8 86 32 3   100.74     LegendNANA
05:00 1.4 0.1 91 31 4   100.75     LegendNANA
06:00 0.8 -0.8 89 33 1   100.75     LegendNANA
07:00 6.8 2.6 75 0 1   100.79     LegendNANA
08:00 8.7 3.0 67 28 6   100.81     LegendNANA
09:00 10.5 1.9 55 28 8   100.76     LegendNANA
10:00 10.9 3.3 59 23 5   100.74     LegendNANA
11:00 11.2 3.1 57 21 9   100.73     LegendNANA
12:00 11.7 2.7 54 23 9   100.69     LegendNANA
13:00 10.8 4.0 63 24 15   100.68     LegendNANA
14:00 10.7 4.9 67 25 12   100.69     LegendNANA
15:00 10.2 5.7 74 25 7   100.70     LegendNANA
16:00 10.3 6.3 76 25 10   100.72     LegendNANA
17:00 9.5 6.6 82 24 8   100.73     LegendNANA
18:00 9.1 6.7 85 24 5   100.73     LegendNANA
19:00 9.0 6.9 86 0 1   100.75     LegendNANA
20:00 8.9 6.7 86   0   100.78     LegendNANA
21:00 7.5 6.1 90 3 4   100.78     LegendNANA
22:00 5.4 4.1 91 33 2   100.79     LegendNANA
23:00 3.2 2.1 93 26 1   100.82     LegendNANA

Notes on Data Quality.

Legend

  • E = Estimated
  • M = Missing
  • NA = Not Available
Date modified: